TimeEDT,TemperatureF,Dew PointF,Humidity,Sea Level PressureIn,VisibilityMPH,Wind Direction,Wind SpeedMPH,Gust SpeedMPH,PrecipitationIn,Events,Conditions,WindDirDegrees,DateUTC
12:53 AM,69.1,64.0,84,29.89,10.0,SW,4.6,-,N/A,,Clear,220,2013-06-02 04:53:00
1:53 AM,68.0,64.0,87,29.88,10.0,SW,6.9,-,N/A,,Scattered Clouds,220,2013-06-02 05:53:00
2:38 AM,68.0,64.4,88,29.89,10.0,SW,4.6,-,N/A,,Mostly Cloudy,230,2013-06-02 06:38:00
2:53 AM,68.0,64.0,87,29.88,10.0,SW,8.1,-,N/A,,Overcast,230,2013-06-02 06:53:00
3:49 AM,68.0,62.6,83,29.89,10.0,SW,6.9,-,N/A,,Mostly Cloudy,220,2013-06-02 07:49:00
3:53 AM,68.0,63.0,84,29.88,10.0,SW,5.8,-,N/A,,Mostly Cloudy,220,2013-06-02 07:53:00
4:53 AM,68.0,63.0,84,29.88,10.0,SW,5.8,-,N/A,,Mostly Cloudy,220,2013-06-02 08:53:00
5:28 AM,66.2,62.6,88,29.89,10.0,Variable,5.8,-,N/A,,Partly Cloudy,0,2013-06-02 09:28:00
5:53 AM,66.9,63.0,87,29.89,10.0,Calm,Calm,-,N/A,,Mostly Cloudy,0,2013-06-02 09:53:00
6:53 AM,66.9,63.0,87,29.90,10.0,Calm,Calm,-,N/A,,Mostly Cloudy,0,2013-06-02 10:53:00
7:25 AM,66.2,62.6,88,29.91,10.0,Calm,Calm,-,N/A,,Mostly Cloudy,0,2013-06-02 11:25:00
7:53 AM,68.0,63.0,84,29.90,10.0,WSW,6.9,-,N/A,,Overcast,250,2013-06-02 11:53:00
8:15 AM,68.0,62.6,83,29.91,10.0,WNW,5.8,-,N/A,,Scattered Clouds,290,2013-06-02 12:15:00
8:53 AM,68.0,62.1,81,29.91,10.0,WSW,3.5,-,N/A,,Scattered Clouds,250,2013-06-02 12:53:00
9:53 AM,71.1,61.0,70,29.91,10.0,West,4.6,-,N/A,,Scattered Clouds,280,2013-06-02 13:53:00
10:01 AM,69.8,60.8,73,29.93,10.0,West,6.9,-,N/A,,Mostly Cloudy,270,2013-06-02 14:01:00
10:35 AM,71.6,62.6,73,29.93,10.0,West,5.8,-,N/A,,Scattered Clouds,270,2013-06-02 14:35:00
10:53 AM,72.0,60.1,66,29.92,10.0,West,3.5,-,N/A,,Scattered Clouds,280,2013-06-02 14:53:00
11:53 AM,73.9,60.1,62,29.92,10.0,SW,3.5,-,N/A,,Scattered Clouds,230,2013-06-02 15:53:00
12:53 PM,75.0,60.1,60,29.91,10.0,WNW,6.9,-,N/A,,Overcast,290,2013-06-02 16:53:00
1:53 PM,75.9,59.0,56,29.91,10.0,Variable,5.8,-,N/A,,Mostly Cloudy,0,2013-06-02 17:53:00
2:53 PM,78.1,60.1,54,29.90,10.0,SW,11.5,-,N/A,,Scattered Clouds,230,2013-06-02 18:53:00
3:53 PM,77.0,57.9,52,29.90,10.0,WNW,12.7,-,N/A,,Mostly Cloudy,290,2013-06-02 19:53:00
4:53 PM,77.0,59.0,54,29.88,10.0,WNW,11.5,-,N/A,,Scattered Clouds,290,2013-06-02 20:53:00
5:53 PM,75.9,57.9,54,29.89,10.0,NW,11.5,-,N/A,,Mostly Cloudy,310,2013-06-02 21:53:00
6:53 PM,75.9,57.9,54,29.89,10.0,WNW,11.5,-,N/A,,Overcast,300,2013-06-02 22:53:00
7:53 PM,73.9,57.9,57,29.89,10.0,WNW,9.2,-,N/A,,Overcast,300,2013-06-02 23:53:00
8:53 PM,70.0,57.9,65,29.91,10.0,NW,3.5,-,N/A,,Partly Cloudy,310,2013-06-03 00:53:00
9:53 PM,69.1,57.9,68,29.92,10.0,Calm,Calm,-,N/A,,Partly Cloudy,0,2013-06-03 01:53:00
10:53 PM,68.0,59.0,73,29.95,10.0,Calm,Calm,-,N/A,,Scattered Clouds,0,2013-06-03 02:53:00
11:53 PM,66.9,59.0,76,29.94,10.0,NNW,4.6,-,N/A,,Scattered Clouds,330,2013-06-03 03:53:00